Location: Chillicothe
(39.7950°N, 93.5520°W)
Time: 15:02:22
(UTC-05:00)

Vanguard 2 - Visible Passes

Search period start: 21 October 2019 00:00
Search period end: 31 October 2019 00:00
Orbit: 554 x 2937 km, 32.9° (Epoch: 21 October)

Date Brightness Start Highest point End Pass type
(mag) Time Alt. Az. Time Alt. Az. Time Alt. Az.
21 Oct 11.3 00:05:56 10° W 00:08:24 18° W 00:08:24 18° W visible
21 Oct 9.5 20:06:19 10° WSW 20:14:59 60° S 20:22:12 31° ESE visible
21 Oct 10.0 22:14:27 10° W 22:23:35 55° SW 22:23:35 55° SW visible
22 Oct 11.5 00:24:15 10° W 00:24:58 12° W 00:24:58 12° W visible
22 Oct 9.5 20:24:07 10° WSW 20:32:57 62° S 20:38:46 37° ESE visible
22 Oct 10.2 22:32:28 10° W 22:40:10 45° SW 22:40:10 45° SW visible
23 Oct 9.4 18:34:43 10° SW 18:41:23 48° SSE 18:52:23 10° E visible
23 Oct 9.5 20:41:58 10° W 20:50:56 61° S 20:55:23 44° SE visible
23 Oct 10.5 22:50:31 10° W 22:56:46 36° WSW 22:56:46 36° WSW visible
24 Oct 9.3 18:52:22 10° WSW 18:59:12 53° SSE 19:10:36 10° E visible
24 Oct 9.6 20:59:52 10° W 21:08:56 58° S 21:12:02 49° SE visible
24 Oct 10.8 23:08:42 10° W 23:13:25 27° WSW 23:13:25 27° WSW visible
25 Oct 9.2 19:10:06 10° WSW 19:17:04 56° S 19:27:19 14° ESE visible
25 Oct 9.7 21:17:48 10° W 21:26:56 53° SSW 21:28:42 50° SSE visible
25 Oct 11.1 23:27:05 10° W 23:30:06 19° WSW 23:30:06 19° WSW visible
26 Oct 9.2 19:27:55 10° WSW 19:34:59 57° S 19:44:03 18° ESE visible
26 Oct 9.9 21:35:48 10° W 21:44:56 47° SSW 21:45:27 46° S visible
26 Oct 11.3 23:45:46 10° W 23:46:51 13° WSW 23:46:51 13° WSW visible
27 Oct 9.3 19:45:46 10° W 19:52:57 55° S 20:00:50 22° ESE visible
27 Oct 10.1 21:53:54 10° W 22:02:14 40° SSW 22:02:14 40° SSW visible
28 Oct 9.4 20:03:40 10° W 20:10:54 50° S 20:17:42 25° SE visible
28 Oct 10.4 22:12:10 10° W 22:19:06 32° SW 22:19:06 32° SW visible
29 Oct 9.6 20:21:38 10° W 20:28:52 45° SSW 20:34:38 27° SE visible
29 Oct 10.7 22:30:42 10° WSW 22:36:03 24° SW 22:36:03 24° SW visible
30 Oct 9.0 18:32:00 10° WSW 18:37:39 49° S 18:46:51 10° ESE visible
30 Oct 9.9 20:39:40 10° W 20:46:51 38° SSW 20:51:40 27° SSE visible
30 Oct 11.0 22:49:43 10° WSW 22:53:05 17° SW 22:53:05 17° SW visible
